Tracking 21092 objects as of 14-Aug-2020
HD Live streaming from Space Station
objects crossing your sky now
Track the most recent launched group of Starlink satellites

STARLINK-1517

Track STARLINK-1517 now!
10-day predictions
STARLINK-1517 is classified as:


NORAD ID: 45787
Int'l Code: 2020-038BK
Perigee: 385.6 km
Apogee: 388.2 km
Inclination: 53.0 °
Period: 92.1 minutes
Semi major axis: 6757 km
RCS: Unknown
Launch date: June 13, 2020
Source: United States (US)
Launch site: AIR FORCE EASTERN TEST RANGE (AFETR)
aabbcc
Your satellite tracking list
Your tracking list is empty




NASA's NSSDC Master Catalog

Two Line Element Set (TLE):
1 45787U 20038W   20227.25001157  .00063971  00000-0  69934-3 0  9998
2 45787  52.9980 353.1270 0001948  48.5627 246.0410 15.62738486 10818
Source of the keplerian elements: AFSPC